Location: *
(17.3280°S, 114.7300°W)
Time: 07:10:13
(UTC+00:00)

Cosmos 2278 Rocket - Pass Details

Date: 05 August 2020
Orbit: 842 x 844 km, 71.0° (Epoch: 20 September)

Event Time Altitude Azimuth Distance (km) Brightness Sun altitude
Exits shadow 12:51:27 - 201° (SSW) 2,643 4.5 -17.3°
Reaches altitude 10° 12:51:53 10° 202° (SSW) 2,477 4.3 -17.2°
Maximum altitude 12:57:33 73° 285° (WNW) 884 2.1 -15.9°
Drops below altitude 10° 13:03:10 10° 9° (N) 2,453 4.9 -14.6°
Sets 13:05:36 0° 11° (NNE) 3,382 5.7 -14.0°
